FW6883 Weather Reports


Display with metric or nautical units.
time (UTC)temp
F
wind
direction
speed
MPH
gust
MPH
rain 1hr
in
rain 24hr
in
rain mn
in
humidity
%
barometer
mb
20260504234557 38 105 8.0 15.0 0.00 0.00 0.00 85 1009.4
20260504233044 38 89 4.0 14.0 0.00 0.00 0.00 84 1009.1
20260504231556 39 96 6.0 13.0 0.00 0.00 0.00 83 1009.1
20260504230039 39 120 4.0 13.0 0.00 0.00 0.00 85 1009.0
20260504224539 38 110 4.0 13.0 0.00 0.00 0.00 86 1009.1
20260504223034 39 104 4.0 13.0 0.00 0.00 0.00 82 1009.1
20260504221533 39 91 4.0 10.0 0.00 0.00 0.00 82 1009.2
20260504220034 39 105 4.0 9.0 0.00 0.00 0.00 79 1009.2
20260504214528 38 94 1.0 7.0 0.00 0.00 0.00 86 1009.4
20260504213027 38 97 2.0 8.0 0.00 0.00 0.00 83 1009.7
20260504211524 38 77 4.0 8.0 0.00 0.00 0.00 82 1009.6
20260504210019 38 101 2.0 7.0 0.00 0.00 0.00 84 1009.3
20260504204517 38 117 2.0 9.0 0.00 0.00 0.00 83 1009.2
20260504203022 38 94 5.0 10.0 0.00 0.00 0.00 81 1009.2
20260504201514 37 89 2.0 10.0 0.00 0.00 0.00 85 1008.9
20260504200012 37 101 1.0 7.0 0.00 0.00 0.00 85 1009.3
20260504194522 37 78 3.0 8.0 0.00 0.00 0.00 84 1009.3
20260504193014 36 103 3.0 10.0 0.00 0.00 0.00 85 1008.8
20260504191505 38 89 4.0 9.0 0.00 0.00 0.00 82 1009.1
20260504190130 38 85 7.0 13.0 0.00 0.00 0.00 79 1008.7
20260504184600 37 94 5.0 11.0 0.00 0.00 0.00 83 1008.6
20260504183056 38 24 6.0 12.0 0.00 0.00 0.00 83 1008.6
20260504181557 38 107 3.0 9.0 0.00 0.00 0.00 84 1008.4
20260504180133 38 108 3.0 10.0 0.00 0.00 0.00 85 1007.9
20260504174548 38 106 5.0 11.0 0.00 0.00 0.00 85 1007.6
20260504173056 39 142 3.0 9.0 0.00 0.00 0.00 83 1007.3
20260504171542 38 94 4.0 11.0 0.00 0.00 0.00 80 1007.2
20260504140122 33 105 2.0 6.0 0.00 0.00 0.00 92 1005.8
20260504081549 33 108 1.0 6.0 0.00 0.00 0.00 96 1004.4
20260504050008 36 107 4.0 8.0 0.00 0.00 0.00 94 1003.1
20260504044504 36 104 1.0 9.0 0.00 0.00 0.00 94 1003.0
20260504043101 37 97 1.0 4.0 0.00 0.00 0.00 94 1002.9
20260504041555 37 104 2.0 7.0 0.00 0.00 0.00 94 1002.9
20260504034551 38 106 1.0 5.0 0.00 0.00 0.00 93 1002.3
20260504033046 38 92 5.0 9.0 0.00 0.00 0.00 93 1002.5
20260504031601 38 113 3.0 7.0 0.00 0.00 0.00 91 1002.1
20260504030040 39 95 0.0 3.0 0.00 0.00 0.00 86 1002.0
20260504024535 40 108 0.0 3.0 0.00 0.00 0.00 91 1002.2
20260504023029 40 113 1.0 4.0 0.00 0.00 0.00 91 1001.8
20260504021525 42 108 2.0 6.0 0.00 0.00 0.00 85 1001.4
20260504020026 42 97 1.0 4.0 0.00 0.00 0.00 88 1001.4
20260504014520 42 101 1.0 8.0 0.00 0.00 0.00 87 1001.6
20260504013011 44 103 2.0 6.0 0.00 0.00 0.00 82 1001.6
20260504011506 46 91 1.0 5.0 0.00 0.00 0.00 80 1001.6
20260504010002 48 99 2.0 6.0 0.00 0.00 0.00 78 1001.7
20260504004558 50 319 2.0 8.0 0.00 0.00 0.00 61 1001.8
20260504003055 51 316 3.0 9.0 0.00 0.00 0.00 53 1001.6
20260504001610 52 304 6.0 9.0 0.00 0.00 0.00 54 1001.6
20260504000048 53 291 3.0 10.0 0.00 0.00 0.00 50 1001.5